Year,Month,Day,Hour,Minute,Value (Times are PST for temperature in C)
2015,05,05,00,00,8.50
2015,05,05,00,01,8.50
2015,05,05,00,02,8.50
2015,05,05,00,03,8.50
2015,05,05,00,04,8.50
2015,05,05,00,05,8.50
2015,05,05,00,06,8.50
2015,05,05,00,07,8.50
2015,05,05,00,08,8.50
2015,05,05,00,09,8.50
2015,05,05,00,10,8.50
2015,05,05,00,11,8.50
2015,05,05,00,12,8.50
2015,05,05,00,13,8.50
2015,05,05,00,14,8.40
2015,05,05,00,15,8.40
2015,05,05,00,16,8.40
2015,05,05,00,17,8.50
2015,05,05,00,18,8.40
2015,05,05,00,19,8.40
2015,05,05,00,20,8.40
2015,05,05,00,21,8.40
2015,05,05,00,22,8.40
2015,05,05,00,23,8.40
2015,05,05,00,24,8.40
2015,05,05,00,25,8.50
2015,05,05,00,26,8.50
2015,05,05,00,27,8.50
2015,05,05,00,28,8.60
2015,05,05,00,29,8.60
2015,05,05,00,30,8.60
2015,05,05,00,31,8.60
2015,05,05,00,32,8.70
2015,05,05,00,33,8.70
2015,05,05,00,34,8.70
2015,05,05,00,35,8.70
2015,05,05,00,36,8.70
2015,05,05,00,37,8.70
2015,05,05,00,38,8.70
2015,05,05,00,39,8.70
2015,05,05,00,40,8.80
2015,05,05,00,41,8.80
2015,05,05,00,42,8.80
2015,05,05,00,43,8.80
2015,05,05,00,44,8.80
2015,05,05,00,45,8.80
2015,05,05,00,46,8.80
2015,05,05,00,47,8.80
2015,05,05,00,48,8.80
2015,05,05,00,49,8.70
2015,05,05,00,50,8.70
2015,05,05,00,51,8.60
2015,05,05,00,52,8.50
2015,05,05,00,53,8.40
2015,05,05,00,54,8.30
2015,05,05,00,55,8.20
2015,05,05,00,56,8.10
2015,05,05,00,57,8.00
2015,05,05,00,58,8.00
2015,05,05,00,59,7.90
2015,05,05,01,00,7.80
2015,05,05,01,01,7.70
2015,05,05,01,02,7.60
2015,05,05,01,03,7.50
2015,05,05,01,04,7.50
2015,05,05,01,05,7.40
2015,05,05,01,06,7.30
2015,05,05,01,07,7.30
2015,05,05,01,08,7.30
2015,05,05,01,09,7.20
2015,05,05,01,10,7.10
2015,05,05,01,11,7.10
2015,05,05,01,12,7.10
2015,05,05,01,13,7.00
2015,05,05,01,14,7.00
2015,05,05,01,15,7.00
2015,05,05,01,16,7.00
2015,05,05,01,17,6.90
2015,05,05,01,18,6.90
2015,05,05,01,19,6.90
2015,05,05,01,20,6.90
2015,05,05,01,21,6.80
2015,05,05,01,22,6.80
2015,05,05,01,23,6.80
2015,05,05,01,24,6.80
2015,05,05,01,25,6.80
2015,05,05,01,26,6.80
2015,05,05,01,27,6.80
2015,05,05,01,28,6.80
2015,05,05,01,29,6.80
2015,05,05,01,30,6.80
2015,05,05,01,31,6.80
2015,05,05,01,32,6.70
2015,05,05,01,33,6.70
2015,05,05,01,34,6.70
2015,05,05,01,35,6.70
2015,05,05,01,36,6.70
2015,05,05,01,37,6.70
2015,05,05,01,38,6.70
2015,05,05,01,39,6.70
2015,05,05,01,40,6.70
2015,05,05,01,41,6.70
2015,05,05,01,42,6.60
2015,05,05,01,43,6.60
2015,05,05,01,44,6.60
2015,05,05,01,45,6.60
2015,05,05,01,46,6.60
2015,05,05,01,47,6.50
2015,05,05,01,48,6.50
2015,05,05,01,49,6.50
2015,05,05,01,50,6.50
2015,05,05,01,51,6.50
2015,05,05,01,52,6.40
2015,05,05,01,53,6.40
2015,05,05,01,54,6.40
2015,05,05,01,55,6.40
2015,05,05,01,56,6.40
2015,05,05,01,57,6.30
2015,05,05,01,58,6.30
2015,05,05,01,59,6.30
2015,05,05,02,00,6.30
2015,05,05,02,01,6.30
2015,05,05,02,02,6.30
2015,05,05,02,03,6.30
2015,05,05,02,04,6.20
2015,05,05,02,05,6.20
2015,05,05,02,06,6.20
2015,05,05,02,07,6.20
2015,05,05,02,08,6.20
2015,05,05,02,09,6.10
2015,05,05,02,10,6.10
2015,05,05,02,11,6.10
2015,05,05,02,12,6.10
2015,05,05,02,13,6.10
2015,05,05,02,14,6.00
2015,05,05,02,15,6.00
2015,05,05,02,16,6.00
2015,05,05,02,17,6.00
2015,05,05,02,18,6.00
2015,05,05,02,19,5.90
2015,05,05,02,20,5.90
2015,05,05,02,21,5.90
2015,05,05,02,22,5.90
2015,05,05,02,23,5.90
2015,05,05,02,24,5.90
2015,05,05,02,25,5.80
2015,05,05,02,26,5.80
2015,05,05,02,27,5.80
2015,05,05,02,28,5.80
2015,05,05,02,29,5.80
2015,05,05,02,30,5.80
2015,05,05,02,31,5.70
2015,05,05,02,32,5.70
2015,05,05,02,33,5.70
2015,05,05,02,34,5.70
2015,05,05,02,35,5.70
2015,05,05,02,36,5.70
2015,05,05,02,37,5.60
2015,05,05,02,38,5.60
2015,05,05,02,39,5.60
2015,05,05,02,40,5.60
2015,05,05,02,41,5.60
2015,05,05,02,42,5.50
2015,05,05,02,43,5.50
2015,05,05,02,44,5.50
2015,05,05,02,45,5.50
2015,05,05,02,46,5.50
2015,05,05,02,47,5.50
2015,05,05,02,48,5.50
2015,05,05,02,49,5.50
2015,05,05,02,50,5.50
2015,05,05,02,51,5.50
2015,05,05,02,52,5.50
2015,05,05,02,53,5.50
2015,05,05,02,54,5.50
2015,05,05,02,55,5.50
2015,05,05,02,56,5.50
2015,05,05,02,57,5.50
2015,05,05,02,58,5.50
2015,05,05,02,59,5.50
2015,05,05,03,00,5.50
2015,05,05,03,01,5.50
2015,05,05,03,02,5.50
2015,05,05,03,03,5.50
2015,05,05,03,04,5.50
2015,05,05,03,05,5.50
2015,05,05,03,06,5.50
2015,05,05,03,07,5.50
2015,05,05,03,08,5.50
2015,05,05,03,09,5.50
2015,05,05,03,10,5.50
2015,05,05,03,11,5.50
2015,05,05,03,12,5.50
2015,05,05,03,13,5.50
2015,05,05,03,14,5.50
2015,05,05,03,15,5.50
2015,05,05,03,16,5.50
2015,05,05,03,17,5.50
2015,05,05,03,18,5.50
2015,05,05,03,19,5.50
2015,05,05,03,20,5.50
2015,05,05,03,21,5.50
2015,05,05,03,22,5.50
2015,05,05,03,23,5.50
2015,05,05,03,24,5.50
2015,05,05,03,25,5.40
2015,05,05,03,26,5.40
2015,05,05,03,27,5.40
2015,05,05,03,28,5.40
2015,05,05,03,29,5.40
2015,05,05,03,30,5.40
2015,05,05,03,31,5.40
2015,05,05,03,32,5.30
2015,05,05,03,33,5.30
2015,05,05,03,34,5.30
2015,05,05,03,35,5.30
2015,05,05,03,36,5.30
2015,05,05,03,37,5.30
2015,05,05,03,38,5.20
2015,05,05,03,39,5.20
2015,05,05,03,40,5.20
2015,05,05,03,41,5.20
2015,05,05,03,42,5.20
2015,05,05,03,43,5.20
2015,05,05,03,44,5.20
2015,05,05,03,45,5.10
2015,05,05,03,46,5.10
2015,05,05,03,47,5.10
2015,05,05,03,48,5.10
2015,05,05,03,49,5.10
2015,05,05,03,50,5.10
2015,05,05,03,51,5.10
2015,05,05,03,52,5.00
2015,05,05,03,53,5.00
2015,05,05,03,54,5.00
2015,05,05,03,55,5.00
2015,05,05,03,56,5.00
2015,05,05,03,57,5.00
2015,05,05,03,58,5.00
2015,05,05,03,59,4.90
2015,05,05,04,00,4.90
2015,05,05,04,01,4.90
2015,05,05,04,02,4.90
2015,05,05,04,03,4.90
2015,05,05,04,04,4.90
2015,05,05,04,05,4.90
2015,05,05,04,06,4.90
2015,05,05,04,07,4.90
2015,05,05,04,08,4.80
2015,05,05,04,09,4.80
2015,05,05,04,10,4.80
2015,05,05,04,11,4.80
2015,05,05,04,12,4.80
2015,05,05,04,13,4.80
2015,05,05,04,14,4.80
2015,05,05,04,15,4.80
2015,05,05,04,16,4.80
2015,05,05,04,17,4.80
2015,05,05,04,18,4.80
2015,05,05,04,19,4.80
2015,05,05,04,20,4.80
2015,05,05,04,21,4.80
2015,05,05,04,22,4.80
2015,05,05,04,23,4.70
2015,05,05,04,24,4.70
2015,05,05,04,25,4.70
2015,05,05,04,26,4.70
2015,05,05,04,27,4.70
2015,05,05,04,28,4.70
2015,05,05,04,29,4.70
2015,05,05,04,30,4.70
2015,05,05,04,31,4.70
2015,05,05,04,32,4.70
2015,05,05,04,33,4.60
2015,05,05,04,34,4.60
2015,05,05,04,35,4.60
2015,05,05,04,36,4.60
2015,05,05,04,37,4.60
2015,05,05,04,38,4.60
2015,05,05,04,39,4.60
2015,05,05,04,40,4.50
2015,05,05,04,41,4.50
2015,05,05,04,42,4.50
2015,05,05,04,43,4.50
2015,05,05,04,44,4.50
2015,05,05,04,45,4.40
2015,05,05,04,46,4.40
2015,05,05,04,47,4.40
2015,05,05,04,48,4.40
2015,05,05,04,49,4.40
2015,05,05,04,50,4.40
2015,05,05,04,51,4.40
2015,05,05,04,52,4.40
2015,05,05,04,53,4.40
2015,05,05,04,54,4.40
2015,05,05,04,55,4.40
2015,05,05,04,56,4.30
2015,05,05,04,57,4.30
2015,05,05,04,58,4.30
2015,05,05,04,59,4.30
2015,05,05,05,00,4.30
2015,05,05,05,01,4.30
2015,05,05,05,02,4.30
2015,05,05,05,03,4.30
2015,05,05,05,04,4.30
2015,05,05,05,05,4.30
2015,05,05,05,06,4.30
2015,05,05,05,07,4.30
2015,05,05,05,08,4.30
2015,05,05,05,09,4.30
2015,05,05,05,10,4.20
2015,05,05,05,11,4.20
2015,05,05,05,12,4.20
2015,05,05,05,13,4.20
2015,05,05,05,14,4.20
2015,05,05,05,15,4.20
2015,05,05,05,16,4.20
2015,05,05,05,17,4.20
2015,05,05,05,18,4.20
2015,05,05,05,19,4.30
2015,05,05,05,20,4.30
2015,05,05,05,21,4.30
2015,05,05,05,22,4.30
2015,05,05,05,23,4.30
2015,05,05,05,24,4.30
2015,05,05,05,25,4.30
2015,05,05,05,26,4.30
2015,05,05,05,27,4.30
2015,05,05,05,28,4.30
2015,05,05,05,29,4.30
2015,05,05,05,30,4.30
2015,05,05,05,31,4.30
2015,05,05,05,32,4.30
2015,05,05,05,33,4.30
2015,05,05,05,34,4.30
2015,05,05,05,35,4.30
2015,05,05,05,36,4.30
2015,05,05,05,37,4.30
2015,05,05,05,38,4.30
2015,05,05,05,39,4.30
2015,05,05,05,40,4.30
2015,05,05,05,41,4.30
2015,05,05,05,42,4.30
2015,05,05,05,43,4.30
2015,05,05,05,44,4.30
2015,05,05,05,45,4.30
2015,05,05,05,46,4.30
2015,05,05,05,47,4.30
2015,05,05,05,48,4.30
2015,05,05,05,49,4.30
2015,05,05,05,50,4.30
2015,05,05,05,51,4.40
2015,05,05,05,52,4.40
2015,05,05,05,53,4.40
2015,05,05,05,54,4.50
2015,05,05,05,55,4.50
2015,05,05,05,56,4.50
2015,05,05,05,57,4.60
2015,05,05,05,58,4.60
2015,05,05,05,59,4.60
2015,05,05,06,00,4.60
2015,05,05,06,01,4.60
2015,05,05,06,02,4.70
2015,05,05,06,03,4.70
2015,05,05,06,04,4.70
2015,05,05,06,05,4.70
2015,05,05,06,06,4.80
2015,05,05,06,07,4.80
2015,05,05,06,08,4.80
2015,05,05,06,09,4.80
2015,05,05,06,10,4.80
2015,05,05,06,11,4.80
2015,05,05,06,12,4.80
2015,05,05,06,13,4.90
2015,05,05,06,14,4.90
2015,05,05,06,15,4.90
2015,05,05,06,16,4.90
2015,05,05,06,17,5.00
2015,05,05,06,18,5.00
2015,05,05,06,19,5.00
2015,05,05,06,20,5.10
2015,05,05,06,21,5.10
2015,05,05,06,22,5.10
2015,05,05,06,23,5.10
2015,05,05,06,24,5.10
2015,05,05,06,25,5.10
2015,05,05,06,26,5.10
2015,05,05,06,27,5.10
2015,05,05,06,28,5.10
2015,05,05,06,29,5.10
2015,05,05,06,30,5.10
2015,05,05,06,31,5.10
2015,05,05,06,32,5.00
2015,05,05,06,33,5.00
2015,05,05,06,34,4.90
2015,05,05,06,35,4.90
2015,05,05,06,36,4.90
2015,05,05,06,37,4.90
2015,05,05,06,38,4.80
2015,05,05,06,39,4.80
2015,05,05,06,40,4.80
2015,05,05,06,41,4.80
2015,05,05,06,42,4.80
2015,05,05,06,43,4.80
2015,05,05,06,44,4.70
2015,05,05,06,45,4.70
2015,05,05,06,46,4.70
2015,05,05,06,47,4.70
2015,05,05,06,48,4.70
2015,05,05,06,49,4.70
2015,05,05,06,50,4.70
2015,05,05,06,51,4.70
2015,05,05,06,52,4.70
2015,05,05,06,53,4.70
2015,05,05,06,54,4.70
2015,05,05,06,55,4.70
2015,05,05,06,56,4.70
2015,05,05,06,57,4.70
2015,05,05,06,58,4.70
2015,05,05,06,59,4.70
2015,05,05,07,00,4.70
2015,05,05,07,01,4.70
2015,05,05,07,02,4.70
2015,05,05,07,03,4.80
2015,05,05,07,04,4.80
2015,05,05,07,05,4.80
2015,05,05,07,06,4.80
2015,05,05,07,07,4.80
2015,05,05,07,08,4.80
2015,05,05,07,09,4.80
2015,05,05,07,10,4.90
2015,05,05,07,11,4.90
2015,05,05,07,12,4.90
2015,05,05,07,13,4.90
2015,05,05,07,14,4.90
2015,05,05,07,15,4.90
2015,05,05,07,16,4.90
2015,05,05,07,17,4.90
2015,05,05,07,18,4.90
2015,05,05,07,19,4.90
2015,05,05,07,20,5.00
2015,05,05,07,21,5.00
2015,05,05,07,22,5.00
2015,05,05,07,23,5.00
2015,05,05,07,24,5.00
2015,05,05,07,25,5.00
2015,05,05,07,26,5.00
2015,05,05,07,27,5.00
2015,05,05,07,28,5.10
2015,05,05,07,29,5.10
2015,05,05,07,30,5.10
2015,05,05,07,31,5.10
2015,05,05,07,32,5.10
2015,05,05,07,33,5.20
2015,05,05,07,34,5.20
2015,05,05,07,35,5.30
2015,05,05,07,36,5.30
2015,05,05,07,37,5.30
2015,05,05,07,38,5.40
2015,05,05,07,39,5.40
2015,05,05,07,40,5.40
2015,05,05,07,41,5.50
2015,05,05,07,42,5.50
2015,05,05,07,43,5.60
2015,05,05,07,44,5.60
2015,05,05,07,45,5.70
2015,05,05,07,46,5.70
2015,05,05,07,47,5.70
2015,05,05,07,48,5.80
2015,05,05,07,49,5.80
2015,05,05,07,50,5.90
2015,05,05,07,51,6.00
2015,05,05,07,52,6.00
2015,05,05,07,53,6.10
2015,05,05,07,54,6.10
2015,05,05,07,55,6.10
2015,05,05,07,56,6.20
2015,05,05,07,57,6.20
2015,05,05,07,58,6.30
2015,05,05,07,59,6.30
2015,05,05,08,00,6.40
2015,05,05,08,01,6.40
2015,05,05,08,02,6.50
2015,05,05,08,03,6.50
2015,05,05,08,04,6.50
2015,05,05,08,05,6.50
2015,05,05,08,06,6.60
2015,05,05,08,07,6.60
2015,05,05,08,08,6.60
2015,05,05,08,09,6.60
2015,05,05,08,10,6.60
2015,05,05,08,11,6.70
2015,05,05,08,12,6.70
2015,05,05,08,13,6.80
2015,05,05,08,14,6.80
2015,05,05,08,15,6.80
2015,05,05,08,16,6.90
2015,05,05,08,17,6.90
2015,05,05,08,18,6.90
2015,05,05,08,19,7.00
2015,05,05,08,20,7.00
2015,05,05,08,21,7.10
2015,05,05,08,22,7.10
2015,05,05,08,23,7.10
2015,05,05,08,24,7.10
2015,05,05,08,25,7.10
2015,05,05,08,26,7.10
2015,05,05,08,27,7.10
2015,05,05,08,28,7.10
2015,05,05,08,29,7.10
2015,05,05,08,30,7.10
2015,05,05,08,31,7.10
2015,05,05,08,32,7.20
2015,05,05,08,33,7.20
2015,05,05,08,34,7.30
2015,05,05,08,35,7.30
2015,05,05,08,36,7.40
2015,05,05,08,37,7.40
2015,05,05,08,38,7.50
2015,05,05,08,39,7.50
2015,05,05,08,40,7.60
2015,05,05,08,41,7.70
2015,05,05,08,42,7.80
2015,05,05,08,43,7.90
2015,05,05,08,44,7.90
2015,05,05,08,45,8.00
2015,05,05,08,46,8.10
2015,05,05,08,47,8.20
2015,05,05,08,48,8.20
2015,05,05,08,49,8.20
2015,05,05,08,50,8.20
2015,05,05,08,51,8.30
2015,05,05,08,52,8.30
2015,05,05,08,53,8.30
2015,05,05,08,54,8.30
2015,05,05,08,55,8.40
2015,05,05,08,56,8.40
2015,05,05,08,57,8.40
2015,05,05,08,58,8.50
2015,05,05,08,59,8.50
2015,05,05,09,00,8.60
2015,05,05,09,01,8.70
2015,05,05,09,02,8.80
2015,05,05,09,03,8.80
2015,05,05,09,04,8.90
2015,05,05,09,05,9.00
2015,05,05,09,06,9.10
2015,05,05,09,07,9.10
2015,05,05,09,08,9.20
2015,05,05,09,09,9.20
2015,05,05,09,10,9.20
2015,05,05,09,11,9.30
2015,05,05,09,12,9.30
2015,05,05,09,13,9.40
2015,05,05,09,14,9.30
2015,05,05,09,15,9.30
2015,05,05,09,16,9.40
2015,05,05,09,17,9.40
2015,05,05,09,18,9.50
2015,05,05,09,19,9.50
2015,05,05,09,20,9.60
2015,05,05,09,21,9.60
2015,05,05,09,22,9.60
2015,05,05,09,23,9.70
2015,05,05,09,24,9.80
2015,05,05,09,25,9.80
2015,05,05,09,26,10.00
2015,05,05,09,27,10.00
2015,05,05,09,28,10.10
2015,05,05,09,29,10.10
2015,05,05,09,30,10.10
2015,05,05,09,31,10.10
2015,05,05,09,32,10.10
2015,05,05,09,33,10.10
2015,05,05,09,34,10.20
2015,05,05,09,35,10.20
2015,05,05,09,36,10.30
2015,05,05,09,37,10.30
2015,05,05,09,38,10.30
2015,05,05,09,39,10.30
2015,05,05,09,40,10.30
2015,05,05,09,41,10.30
2015,05,05,09,42,10.40
2015,05,05,09,43,10.50
2015,05,05,09,44,10.60
2015,05,05,09,45,10.60
2015,05,05,09,46,10.70
2015,05,05,09,47,10.80
2015,05,05,09,48,10.80
2015,05,05,09,49,10.80
2015,05,05,09,50,10.70
2015,05,05,09,51,10.70
2015,05,05,09,52,10.50
2015,05,05,09,53,10.50
2015,05,05,09,54,10.40
2015,05,05,09,55,10.40
2015,05,05,09,56,10.50
2015,05,05,09,57,10.50
2015,05,05,09,58,10.50
2015,05,05,09,59,10.50
2015,05,05,10,00,10.50
2015,05,05,10,01,10.60
2015,05,05,10,02,10.60
2015,05,05,10,03,10.60
2015,05,05,10,04,10.60
2015,05,05,10,05,10.60
2015,05,05,10,06,10.70
2015,05,05,10,07,10.70
2015,05,05,10,08,10.70
2015,05,05,10,09,10.70
2015,05,05,10,10,10.70
2015,05,05,10,11,10.80
2015,05,05,10,12,10.80
2015,05,05,10,13,10.80
2015,05,05,10,14,10.80
2015,05,05,10,15,10.80
2015,05,05,10,16,10.80
2015,05,05,10,17,10.80
2015,05,05,10,18,10.70
2015,05,05,10,19,10.70
2015,05,05,10,20,10.70
2015,05,05,10,21,10.70
2015,05,05,10,22,10.80
2015,05,05,10,23,10.80
2015,05,05,10,24,10.80
2015,05,05,10,25,10.80
2015,05,05,10,26,10.80
2015,05,05,10,27,10.80
2015,05,05,10,28,10.80
2015,05,05,10,29,10.90
2015,05,05,10,30,10.90
2015,05,05,10,31,10.90
2015,05,05,10,32,10.90
2015,05,05,10,33,11.00
2015,05,05,10,34,11.00
2015,05,05,10,35,11.00
2015,05,05,10,36,11.00
2015,05,05,10,37,11.00
2015,05,05,10,38,11.00
2015,05,05,10,39,11.10
2015,05,05,10,40,11.00
2015,05,05,10,41,11.00
2015,05,05,10,42,11.00
2015,05,05,10,43,10.90
2015,05,05,10,44,10.80
2015,05,05,10,45,10.70
2015,05,05,10,46,10.70
2015,05,05,10,47,10.70
2015,05,05,10,48,10.80
2015,05,05,10,49,10.80
2015,05,05,10,50,10.90
2015,05,05,10,51,11.00
2015,05,05,10,52,11.20
2015,05,05,10,53,11.30
2015,05,05,10,54,11.40
2015,05,05,10,55,11.50
2015,05,05,10,56,11.50
2015,05,05,10,57,11.60
2015,05,05,10,58,11.70
2015,05,05,10,59,11.90
2015,05,05,11,00,12.00
2015,05,05,11,01,12.00
2015,05,05,11,02,12.10
2015,05,05,11,03,12.10
2015,05,05,11,04,12.20
2015,05,05,11,05,12.20
2015,05,05,11,06,12.20
2015,05,05,11,07,12.10
2015,05,05,11,08,12.00
2015,05,05,11,09,11.90
2015,05,05,11,10,11.80
2015,05,05,11,11,11.70
2015,05,05,11,12,11.60
2015,05,05,11,13,11.50
2015,05,05,11,14,11.30
2015,05,05,11,15,11.20
2015,05,05,11,16,11.10
2015,05,05,11,17,11.00
2015,05,05,11,18,11.00
2015,05,05,11,19,10.90
2015,05,05,11,20,10.90
2015,05,05,11,21,10.90
2015,05,05,11,22,10.90
2015,05,05,11,23,10.80
2015,05,05,11,24,10.80
2015,05,05,11,25,10.90
2015,05,05,11,26,10.90
2015,05,05,11,27,11.00
2015,05,05,11,28,11.00
2015,05,05,11,29,11.10
2015,05,05,11,30,11.10
2015,05,05,11,31,11.20
2015,05,05,11,32,11.20
2015,05,05,11,33,11.30
2015,05,05,11,34,11.30
2015,05,05,11,35,11.30
2015,05,05,11,36,11.40
2015,05,05,11,37,11.40
2015,05,05,11,38,11.40
2015,05,05,11,39,11.40
2015,05,05,11,40,11.50
2015,05,05,11,41,11.50
2015,05,05,11,42,11.50
2015,05,05,11,43,11.50
2015,05,05,11,44,11.40
2015,05,05,11,45,11.30
2015,05,05,11,46,11.30
2015,05,05,11,47,11.20
2015,05,05,11,48,11.20
2015,05,05,11,49,11.10
2015,05,05,11,50,11.00
2015,05,05,11,51,11.00
2015,05,05,11,52,11.00
2015,05,05,11,53,10.90
2015,05,05,11,54,10.90
2015,05,05,11,55,10.80
2015,05,05,11,56,10.80
2015,05,05,11,57,10.80
2015,05,05,11,58,10.80
2015,05,05,11,59,10.80
2015,05,05,12,00,10.80
2015,05,05,12,01,10.80
2015,05,05,12,02,10.80
2015,05,05,12,03,10.70
2015,05,05,12,04,10.70
2015,05,05,12,05,10.70
2015,05,05,12,06,10.70
2015,05,05,12,07,10.80
2015,05,05,12,08,10.80
2015,05,05,12,09,10.90
2015,05,05,12,10,10.90
2015,05,05,12,11,10.90
2015,05,05,12,12,11.00
2015,05,05,12,13,11.00
2015,05,05,12,14,11.10
2015,05,05,12,15,11.10
2015,05,05,12,16,11.20
2015,05,05,12,17,11.20
2015,05,05,12,18,11.20
2015,05,05,12,19,11.20
2015,05,05,12,20,11.20
2015,05,05,12,21,11.20
2015,05,05,12,22,11.20
2015,05,05,12,23,11.10
2015,05,05,12,24,11.10
2015,05,05,12,25,11.10
2015,05,05,12,26,11.10
2015,05,05,12,27,11.10
2015,05,05,12,28,11.10
2015,05,05,12,29,11.10
2015,05,05,12,30,11.10
2015,05,05,12,31,11.10
2015,05,05,12,32,11.20
2015,05,05,12,33,11.20
2015,05,05,12,34,11.20
2015,05,05,12,35,11.20
2015,05,05,12,36,11.20
2015,05,05,12,37,11.20
2015,05,05,12,38,11.20
2015,05,05,12,39,11.20
2015,05,05,12,40,11.10
2015,05,05,12,41,11.20
2015,05,05,12,42,11.10
2015,05,05,12,43,11.10
2015,05,05,12,44,11.10
2015,05,05,12,45,11.10
2015,05,05,12,46,11.10
2015,05,05,12,47,11.10
2015,05,05,12,48,11.10
2015,05,05,12,49,11.10
2015,05,05,12,50,11.10
2015,05,05,12,51,11.10
2015,05,05,12,52,11.00
2015,05,05,12,53,11.00
2015,05,05,12,54,11.00
2015,05,05,12,55,11.10
2015,05,05,12,56,11.10
2015,05,05,12,57,11.10
2015,05,05,12,58,11.00
2015,05,05,12,59,11.00
2015,05,05,13,00,10.90
2015,05,05,13,01,10.90
2015,05,05,13,02,11.00
2015,05,05,13,03,11.00
2015,05,05,13,04,10.90
2015,05,05,13,05,10.90
2015,05,05,13,06,10.90
2015,05,05,13,07,10.90
2015,05,05,13,08,10.90
2015,05,05,13,09,10.90
2015,05,05,13,10,10.80
2015,05,05,13,11,10.80
2015,05,05,13,12,10.80
2015,05,05,13,13,10.80
2015,05,05,13,14,10.80
2015,05,05,13,15,10.70
2015,05,05,13,16,10.80
2015,05,05,13,17,10.70
2015,05,05,13,18,10.70
2015,05,05,13,19,10.70
2015,05,05,13,20,10.70
2015,05,05,13,21,10.70
2015,05,05,13,22,10.70
2015,05,05,13,23,10.80
2015,05,05,13,24,10.80
2015,05,05,13,25,10.80
2015,05,05,13,26,10.80
2015,05,05,13,27,10.90
2015,05,05,13,28,11.00
2015,05,05,13,29,11.00
2015,05,05,13,30,11.10
2015,05,05,13,31,11.10
2015,05,05,13,32,11.20
2015,05,05,13,33,11.20
2015,05,05,13,34,11.20
2015,05,05,13,35,11.30
2015,05,05,13,36,11.30
2015,05,05,13,37,11.40
2015,05,05,13,38,11.40
2015,05,05,13,39,11.50
2015,05,05,13,40,11.60
2015,05,05,13,41,11.60
2015,05,05,13,42,11.60
2015,05,05,13,43,11.70
2015,05,05,13,44,11.70
2015,05,05,13,45,11.80
2015,05,05,13,46,11.80
2015,05,05,13,47,11.90
2015,05,05,13,48,12.00
2015,05,05,13,49,12.10
2015,05,05,13,50,12.30
2015,05,05,13,51,12.40
2015,05,05,13,52,12.50
2015,05,05,13,53,12.50
2015,05,05,13,54,12.50
2015,05,05,13,55,12.50
2015,05,05,13,56,12.60
2015,05,05,13,57,12.60
2015,05,05,13,58,12.60
2015,05,05,13,59,12.70
2015,05,05,14,00,12.80
2015,05,05,14,01,12.90
2015,05,05,14,02,12.90
2015,05,05,14,03,13.00
2015,05,05,14,04,13.00
2015,05,05,14,05,13.10
2015,05,05,14,06,13.10
2015,05,05,14,07,13.10
2015,05,05,14,08,13.00
2015,05,05,14,09,13.00
2015,05,05,14,10,12.90
2015,05,05,14,11,12.90
2015,05,05,14,12,12.90
2015,05,05,14,13,12.90
2015,05,05,14,14,12.90
2015,05,05,14,15,13.00
2015,05,05,14,16,13.10
2015,05,05,14,17,13.20
2015,05,05,14,18,13.20
2015,05,05,14,19,13.20
2015,05,05,14,20,13.30
2015,05,05,14,21,13.30
2015,05,05,14,22,13.30
2015,05,05,14,23,13.40
2015,05,05,14,24,13.40
2015,05,05,14,25,13.50
2015,05,05,14,26,13.60
2015,05,05,14,27,13.70
2015,05,05,14,28,13.80
2015,05,05,14,29,13.80
2015,05,05,14,30,13.90
2015,05,05,14,31,13.90
2015,05,05,14,32,13.90
2015,05,05,14,33,13.90
2015,05,05,14,34,13.90
2015,05,05,14,35,14.00
2015,05,05,14,36,14.00
2015,05,05,14,37,14.00
2015,05,05,14,38,13.90
2015,05,05,14,39,13.90
2015,05,05,14,40,13.90
2015,05,05,14,41,13.80
2015,05,05,14,42,13.80
2015,05,05,14,43,13.80
2015,05,05,14,44,13.70
2015,05,05,14,45,13.70
2015,05,05,14,46,13.70
2015,05,05,14,47,13.60
2015,05,05,14,48,13.50
2015,05,05,14,49,13.40
2015,05,05,14,50,13.30
2015,05,05,14,51,13.30
2015,05,05,14,52,13.30
2015,05,05,14,53,13.30
2015,05,05,14,54,13.40
2015,05,05,14,55,13.40
2015,05,05,14,56,13.50
2015,05,05,14,57,13.50
2015,05,05,14,58,13.60
2015,05,05,14,59,13.70
2015,05,05,15,00,13.70
2015,05,05,15,01,13.80
2015,05,05,15,02,13.90
2015,05,05,15,03,13.90
2015,05,05,15,04,13.80
2015,05,05,15,05,13.60
2015,05,05,15,06,13.50
2015,05,05,15,07,13.30
2015,05,05,15,08,13.30
2015,05,05,15,09,13.30
2015,05,05,15,10,13.30
2015,05,05,15,11,13.30
2015,05,05,15,12,13.30
2015,05,05,15,13,13.30
2015,05,05,15,14,13.40
2015,05,05,15,15,13.50
2015,05,05,15,16,13.50
2015,05,05,15,17,13.50
2015,05,05,15,18,13.60
2015,05,05,15,19,13.60
2015,05,05,15,20,13.60
2015,05,05,15,21,13.50
2015,05,05,15,22,13.60
2015,05,05,15,23,13.60
2015,05,05,15,24,13.70
2015,05,05,15,25,13.80
2015,05,05,15,26,13.90
2015,05,05,15,27,13.90
2015,05,05,15,28,14.00
2015,05,05,15,29,13.90
2015,05,05,15,30,13.90
2015,05,05,15,31,13.90
2015,05,05,15,32,13.90
2015,05,05,15,33,13.80
2015,05,05,15,34,13.80
2015,05,05,15,35,13.70
2015,05,05,15,36,13.60
2015,05,05,15,37,13.50
2015,05,05,15,38,13.40
2015,05,05,15,39,13.30
2015,05,05,15,40,13.20
2015,05,05,15,41,13.20
2015,05,05,15,42,13.10
2015,05,05,15,43,13.00
2015,05,05,15,44,13.00
2015,05,05,15,45,12.90
2015,05,05,15,46,12.90
2015,05,05,15,47,12.90
2015,05,05,15,48,12.90
2015,05,05,15,49,12.90
2015,05,05,15,50,12.90
2015,05,05,15,51,12.90
2015,05,05,15,52,12.80
2015,05,05,15,53,12.80
2015,05,05,15,54,12.80
2015,05,05,15,55,12.80
2015,05,05,15,56,12.70
2015,05,05,15,57,12.70
2015,05,05,15,58,12.60
2015,05,05,15,59,12.60
2015,05,05,16,00,12.50
2015,05,05,16,01,12.50
2015,05,05,16,02,12.40
2015,05,05,16,03,12.40
2015,05,05,16,04,12.40
2015,05,05,16,05,12.40
2015,05,05,16,06,12.40
2015,05,05,16,07,12.40
2015,05,05,16,08,12.40
2015,05,05,16,09,12.50
2015,05,05,16,10,12.50
2015,05,05,16,11,12.60
2015,05,05,16,12,12.60
2015,05,05,16,13,12.60
2015,05,05,16,14,12.70
2015,05,05,16,15,12.70
2015,05,05,16,16,12.70
2015,05,05,16,17,12.70
2015,05,05,16,18,12.70
2015,05,05,16,19,12.70
2015,05,05,16,20,12.70
2015,05,05,16,21,12.70
2015,05,05,16,22,12.60
2015,05,05,16,23,12.60
2015,05,05,16,24,12.60
2015,05,05,16,25,12.60
2015,05,05,16,26,12.60
2015,05,05,16,27,12.50
2015,05,05,16,28,12.50
2015,05,05,16,29,12.40
2015,05,05,16,30,12.30
2015,05,05,16,31,12.30
2015,05,05,16,32,12.20
2015,05,05,16,33,12.20
2015,05,05,16,34,12.20
2015,05,05,16,35,12.20
2015,05,05,16,36,12.20
2015,05,05,16,37,12.20
2015,05,05,16,38,12.10
2015,05,05,16,39,12.10
2015,05,05,16,40,12.10
2015,05,05,16,41,12.10
2015,05,05,16,42,12.10
2015,05,05,16,43,12.10
2015,05,05,16,44,12.20
2015,05,05,16,45,12.20
2015,05,05,16,46,12.20
2015,05,05,16,47,12.20
2015,05,05,16,48,12.20
2015,05,05,16,49,12.20
2015,05,05,16,50,12.20
2015,05,05,16,51,12.20
2015,05,05,16,52,12.20
2015,05,05,16,53,12.20
2015,05,05,16,54,12.20
2015,05,05,16,55,12.20
2015,05,05,16,56,12.20
2015,05,05,16,57,12.30
2015,05,05,16,58,12.30
2015,05,05,16,59,12.30
2015,05,05,17,00,12.30
2015,05,05,17,01,12.30
2015,05,05,17,02,12.30
2015,05,05,17,03,12.40
2015,05,05,17,04,12.40
2015,05,05,17,05,12.40
2015,05,05,17,06,12.40
2015,05,05,17,07,12.50
2015,05,05,17,08,12.50
2015,05,05,17,09,12.60
2015,05,05,17,10,12.80
2015,05,05,17,11,12.90
2015,05,05,17,12,13.00
2015,05,05,17,13,13.20
2015,05,05,17,14,13.30
2015,05,05,17,15,13.40
2015,05,05,17,16,13.50
2015,05,05,17,17,13.60
2015,05,05,17,18,13.60
2015,05,05,17,19,13.60
2015,05,05,17,20,13.60
2015,05,05,17,21,13.50
2015,05,05,17,22,13.50
2015,05,05,17,23,13.50
2015,05,05,17,24,13.50
2015,05,05,17,25,13.50
2015,05,05,17,26,13.50
2015,05,05,17,27,13.60
2015,05,05,17,28,13.60
2015,05,05,17,29,13.60
2015,05,05,17,30,13.60
2015,05,05,17,31,13.60
2015,05,05,17,32,13.60
2015,05,05,17,33,13.60
2015,05,05,17,34,13.70
2015,05,05,17,35,13.70
2015,05,05,17,36,13.70
2015,05,05,17,37,13.70
2015,05,05,17,38,13.70
2015,05,05,17,39,13.70
2015,05,05,17,40,13.70
2015,05,05,17,41,13.80
2015,05,05,17,42,13.80
2015,05,05,17,43,13.80
2015,05,05,17,44,13.80